Flag for Switzerland Weather past 2 weeks in Davos, Graubünden, Switzerland

Now
36 °F

Chilly.


Feels Like: 34 °F
Forecast: 0 / 22 °F
Wind: 3 mph from South

Location: Chur-Ems

Current Time: Jan 31, 2015 at 4:34:01 PM

Latest Report: Jan 31, 2015 at 3:00 PM


Visibility: N/A

Pressure: 29.12 "Hg

Humidity: 51%

Dew point: 20 °F

Location of DavosLocation

Historic Weather in Davos — Graph

°F

Davos temperature yesterday

Maximum temperature yesterday: 39 °F (at 12:00 AM)
Minimum temperature yesterday: 29 °F (at 6:00 PM)
Average temperature yesterday: 33 °F

Past Weeks' High & Low Weather Summary

 TemperatureHumidityPressure
High49 °F (Jan 16, 3:00 PM)96% (Jan 27, 5:00 AM)30.49 "Hg (Jan 27, 5:00 AM)
Low24 °F (Jan 26, 8:00 AM)41% (Jan 26, 1:00 PM)28.88 "Hg (Jan 30, 3:00 AM)
Average34 °F76%29.93 "Hg
* Reported Jan 16 3:00 PM — Jan 31 3:00 PM, Davos, Weather by CustomWeather, © 2014

Note: Actual official high and low records may vary slightly from our data, if they occured in-between our weather recording intervals... More about our weather records

Advertising

Davos weather history for previous 24 hours

 ConditionsComfort  
Time TempWeatherWind HumidityBarometerVisibility
3:00 PM
Jan 31
36 °FChilly.3 mph51%29.12 "HgN/A
2:00 PM36 °FChilly.3 mph51%29.12 "HgN/A
1:00 PM35 °FLow clouds.6 mph49%29.15 "Hg12 mi
12:00 PM34 °FChilly.9 mph53%29.15 "HgN/A
11:00 AM30 °FChilly.8 mph60%29.18 "HgN/A
10:00 AM27 °FPartly sunny.6 mph66%29.21 "Hg12 mi
9:00 AM26 °FChilly.5 mph70%29.21 "HgN/A
8:00 AM28 °FChilly.7 mph73%29.18 "HgN/A
7:00 AM28 °FFog.3 mph75%29.18 "Hg4 mi
6:00 AM28 °FChilly.3 mph86%29.15 "HgN/A
5:00 AM28 °FChilly.1 mph89%29.15 "HgN/A
3:00 AM29 °FChilly.2 mph85%29.12 "HgN/A
2:00 AM29 °FChilly.1 mph86%29.12 "HgN/A
1:00 AM29 °FLight snow. Low clouds.3 mph88%29.09 "Hg1 mi
12:00 AM30 °FChilly.5 mph76%29.06 "HgN/A
11:00 PM
Jan 30
30 °FChilly.8 mph80%29.06 "HgN/A
10:00 PM31 °FFog.5 mph75%29.03 "Hg5 mi
9:00 PM30 °FChilly.3 mph81%29.03 "HgN/A
8:00 PM31 °FChilly.5 mph81%29.03 "HgN/A
7:00 PM31 °FFog.6 mph83%29.03 "Hg3 mi
6:00 PM29 °FChilly.2 mph88%29.03 "HgN/A
5:00 PM31 °FChilly.1 mph84%29.03 "HgN/A
4:00 PM32 °FFog.1 mph75%29.03 "Hg2 mi
Weather by CustomWeather, © 2014

See weather overviewHow to use our weather pages